Location: Grandview
(34.8900°N, 117.1058°W)
Time: 11:07:39
(UTC-07:00)

ISS - Pass Details

Date: 14 October 2017
Orbit: 401 x 408 km, 51.6° (Epoch: 21 October)

Event Time Altitude Azimuth Distance (km) Brightness Sun altitude
Rises 19:33:12 0° 313° (NW) 2,321 0.8 -16.9°
Reaches altitude 10° 19:35:17 10° 314° (NW) 1,460 -0.3 -17.4°
Maximum altitude 19:38:33 82° 42° (NE) 412 -4.0 -18.0°
Enters shadow 19:39:03 61° 118° (ESE) 462 -3.9 -18.1°
